This is the latest recevied weather packets stored in our database for station/object KB2EAR-13. If no packets are shown the sender has not sent any weather packets the latest 10 day(s).
| Time | Temp. | Humidity | Pressure | Rain* | Wind** | Luminosity | Snow |
|---|---|---|---|---|---|---|---|
| 1777393817 | 17.22° C | 49% | 1022.1 hPa | 0 mm | - | - | - |
| 1777393517 | 17.22° C | 47% | 1022.1 hPa | 0 mm | - | - | - |
| 1777393217 | 17.22° C | 49% | 1022 hPa | 0 mm | - | - | - |
| 1777392917 | 17.22° C | 48% | 1022.1 hPa | 0 mm | - | - | - |
| 1777392617 | 17.22° C | 50% | 1022.2 hPa | 0 mm | - | - | - |
| 1777392317 | 17.22° C | 47% | 1022.2 hPa | 0 mm | - | - | - |
| 1777392109 | 17.22° C | 46% | 1022.3 hPa | 0 mm | - | - | - |
| 1777392038 | 17.22° C | 48% | 1022.3 hPa | 0 mm | - | - | - |
| 1777391717 | 17.22° C | 48% | 1022.3 hPa | 0 mm | - | - | - |
| 1777391417 | 17.22° C | 47% | 1022.3 hPa | 0 mm | - | - | - |
| 1777391117 | 17.22° C | 49% | 1022.4 hPa | 0 mm | - | - | - |
| 1777390817 | 17.22° C | 48% | 1022.4 hPa | 0 mm | - | - | - |
| 1777390517 | 17.22° C | 48% | 1022.5 hPa | 0 mm | - | - | - |
| 1777390217 | 17.22° C | 49% | 1022.4 hPa | 0 mm | - | - | - |
| 1777389917 | 17.22° C | 50% | 1022.5 hPa | 0 mm | - | - | - |
| 1777389617 | 17.22° C | 50% | 1022.6 hPa | 0 mm | - | - | - |
| 1777389317 | 16.67° C | 50% | 1022.6 hPa | 0 mm | - | - | - |
| 1777389017 | 16.67° C | 51% | 1022.5 hPa | 0 mm | - | - | - |
| 1777388793 | 16.11° C | 51% | 1022.6 hPa | 0 mm | - | - | - |
| 1777388717 | 16.67° C | 50% | 1022.6 hPa | 0 mm | - | - | - |
| 1777388464 | 16.11° C | 52% | 1022.6 hPa | 0 mm | - | - | - |
| 1777388417 | 16.67° C | 53% | 1022.6 hPa | 0 mm | - | - | - |
| 1777388138 | 15.56° C | 54% | 1022.5 hPa | 0 mm | - | - | - |
| 1777388117 | 16.11° C | 51% | 1022.6 hPa | 0 mm | - | - | - |
| 1777387817 | 16.11° C | 52% | 1022.6 hPa | 0 mm | - | - | - |
* Rain latest hour (hover to see other rain measurements)
** Current wind speed in m/s (hover to see current wind gust speed)